Weather History for Meridian, MS

Change the Weather History Date:

Friday, January 4, 2013

  Actual Average Record
Temperature  
Mean Temperature 41 °F 45 °F  
Max Temperature 55 °F 56 °F 79 °F (2006)
Min Temperature 27 °F 33 °F 10 °F (1919)
Degree Days  
Heating Degree Days 24 20  
Month to date heating degree days 86 80  
Since 1 July heating degree days 1042 1088  
Cooling Degree Days 0 0  
Month to date cooling degree days 0 0  
Year to date cooling degree days 0 0  
Moisture  
Dew Point 28 °F    
Average Humidity 65    
Maximum Humidity 100    
Minimum Humidity 29    
Precipitation  
Precipitation 0.00 in 0.14 in 2.20 in (1926)
Month to date precipitation 1.74 0.54  
Year to date precipitation 1.74 0.54  
Sea Level Pressure  
Sea Level Pressure 30.42 in    
Wind  
Wind Speed 3 mph (North)    
Max Wind Speed 12 mph    
Max Gust Speed 17 mph    
Visibility 10 miles    
Events      
T = Trace of Precipitation, MM = Missing Value Source: NWS Daily Summary

Daily Weather History Graph

Daily Weather History Graph

Search for Another Location

Airport:

Trip Planner

Search our weather history database for the weather conditions in past years. The results will help you decide how hot, cold, wet, or windy it might be!

Date:

Astronomy

Jan. 04, 2013 Rise Set
Actual Time 6:56 AM CST 5:03 PM CST
Civil Twilight 6:30 AM CST 5:30 PM CST
Nautical Twilight 5:59 AM CST 6:00 PM CST
Astronomical Twilight 5:29 AM CST 6:30 PM CST
Moon No Moon Rise 11:05 AM CST (1/4)
Length of Visible Light 11h 00m
Length of Day
10h 06m
Waning Gibbous, 55% of the Moon is Illuminated
Jan 4
Waning Gibbous
Jan 4
Last Quarter
Jan 11
New
Jan 18
First Quarter
Jan 26
Full

Hourly Weather History & Observations

Time (CST) Temp. Windchill Dew Point Humidity Pressure Visibility Wind Dir Wind Speed Gust Speed Precip Events Conditions
12:58 AM 28.9 °F - 27.0 °F 92% 30.40 in 10.0 mi Calm Calm - N/A   Clear
1:58 AM 28.0 °F - 27.0 °F 96% 30.40 in 10.0 mi Calm Calm - N/A   Clear
2:58 AM 28.0 °F 24.2 °F 27.0 °F 96% 30.41 in 10.0 mi SW 3.5 mph - N/A   Clear
3:58 AM 27.0 °F - 26.1 °F 96% 30.40 in 10.0 mi Calm Calm - N/A   Clear
4:58 AM 28.0 °F 24.2 °F 26.1 °F 92% 30.41 in 10.0 mi North 3.5 mph - N/A   Clear
5:58 AM 28.9 °F - 26.1 °F 89% 30.43 in 10.0 mi Calm Calm - N/A   Clear
6:58 AM 27.0 °F - 25.0 °F 92% 30.44 in 10.0 mi Calm Calm - N/A   Clear
7:58 AM 32.0 °F - 28.0 °F 85% 30.46 in 10.0 mi Calm Calm - N/A   Clear
8:58 AM 37.0 °F - 28.0 °F 70% 30.48 in 10.0 mi Calm Calm - 0.00 in   Clear
9:58 AM 43.0 °F 40.3 °F 28.0 °F 56% 30.49 in 10.0 mi ENE 4.6 mph - N/A   Clear
10:58 AM 48.0 °F - 24.1 °F 39% 30.47 in 10.0 mi North 5.8 mph - N/A   Clear
11:58 AM 50.0 °F - 23.0 °F 35% 30.43 in 10.0 mi Variable 3.5 mph - N/A   Clear
12:58 PM 52.0 °F - 24.1 °F 34% 30.40 in 10.0 mi Variable 3.5 mph - N/A   Clear
1:58 PM 53.1 °F - 23.0 °F 31% 30.36 in 10.0 mi NW 9.2 mph - N/A   Clear
2:58 PM 54.0 °F - 24.1 °F 31% 30.38 in 10.0 mi NW 9.2 mph 17.3 mph N/A   Clear
3:58 PM 51.1 °F - 26.1 °F 38% 30.38 in 10.0 mi North 6.9 mph - N/A   Clear
4:58 PM 48.0 °F - 27.0 °F 44% 30.39 in 10.0 mi North 6.9 mph - N/A   Clear
5:58 PM 44.1 °F 40.8 °F 28.9 °F 55% 30.39 in 10.0 mi NNE 5.8 mph - N/A   Clear
6:58 PM 37.9 °F 35.5 °F 32.0 °F 79% 30.42 in 10.0 mi SSW 3.5 mph - N/A   Clear
7:58 PM 36.0 °F - 33.1 °F 89% 30.42 in 10.0 mi Calm Calm - N/A   Scattered Clouds
8:58 PM 36.0 °F - 32.0 °F 86% 30.42 in 10.0 mi Calm Calm - N/A   Clear
9:58 PM 34.0 °F - 33.1 °F 96% 30.41 in 10.0 mi Calm Calm - N/A   Partly Cloudy
10:58 PM 33.1 °F - 30.9 °F 92% 30.40 in 10.0 mi Calm Calm - N/A   Scattered Clouds
11:58 PM 36.0 °F - 33.1 °F 89% 30.40 in 10.0 mi Calm Calm - N/A   Overcast